Simultaneous Nadir Overpasses (SNOs) Predictions

Prediction of SNOs between METOP-B and NOAA-19 Satellite Orbit:

Table of predicted SNOs for the next 14.0 days since TLE Epoch: 11/6/2021
Index Date (METOP-B) Time (METOP-B) Lat,Lon (METOP-B) SZA (METOP-B ) Date (NOAA-19) Time (NOAA-19) Lat,Lon (NOAA-19) SZA (NOAA-19 ) Distance(km) Time Diff (sec)
1 11/14/2021 05:02:12 -80.69, -44.71 79.49 11/14/2021 05:01:08 -80.69, -44.86 79.52 2.71 64
2 11/14/2021 05:52:52 80.69, 122.69 100.53 11/14/2021 05:52:06 80.69, 122.63 100.51 1.27 46
3 11/14/2021 06:43:34 -80.68, -70.20 79.49 11/14/2021 06:43:08 -80.69, -70.29 79.50 2.22 26
4 11/14/2021 07:34:14 80.68, 97.21 100.53 11/14/2021 07:34:06 80.68, 97.20 100.53 0.31 8
5 11/14/2021 08:24:55 -80.69, -95.34 79.45 11/14/2021 08:25:07 -80.68, -95.36 79.46 1.46 12
6 11/14/2021 09:15:36 80.67, 71.73 100.53 11/14/2021 09:16:06 80.68, 71.76 100.55 1.19 30
7 11/14/2021 10:06:17 -80.68,-120.82 79.45 11/14/2021 10:07:07 -80.67,-120.79 79.43 0.93 50



Historial Predications of SNOs between METOP-B and NOAA-19
